Location: *
(43.9900°N, 3.4811°E)
Time: 02:30:11
(UTC+00:00)

Cosmos 2154 Rocket - Pass Details

Date: 25 August 2019
Orbit: 965 x 997 km, 82.9° (Epoch: 16 September)

Event Time Altitude Azimuth Distance (km) Brightness Sun altitude
Rises 21:56:26 0° 350° (N) 3,689 8.0 -29.8°
Reaches altitude 10° 21:58:58 10° 350° (N) 2,733 7.1 -30.0°
Enters shadow 22:05:05 79° 284° (WNW) 993 3.9 -30.6°
